Tracking 28081 objects as of 26-Sep-2023
HD Live streaming from Space Station
objects crossing your sky now

SL-14 R/B

Track SL-14 R/B now!
10-day predictions
SL-14 R/B is classified as:


NORAD ID: 16882
Int'l Code: 1986-055B
Perigee: 609.4 km
Apogee: 638.7 km
Inclination: 82.5 °
Period: 97.0 minutes
Semi major axis: 6995 km
RCS: 4.759 m2 (large)
Launch date: July 28, 1986
Source: Commonwealth of Independent States (former USSR) (CIS)
Launch site: PLESETSK MISSILE AND SPACE COMPLEX (PKMTR)

Note: This is a ROCKET BODY
Your satellite tracking list
Your tracking list is empty




NASA's NSSDC Master Catalog

Two Line Element Set (TLE):
1 16882U 86055B   23268.48601021  .00001056  00000-0  12375-3 0  9995
2 16882  82.5187 247.9444 0020914  56.3137  90.4665 14.83938176986400
Source of the keplerian elements: AFSPC